Date String (YYYY-MM-DD hh:mm:ss) UTC,Instrument flags,absolute air pressure of the measurement (hPa),sample flow rate (lpm),inlet stack bypass flow (lpm),air temperature of the measurement (°C),ambient temperature measured by the external sensor (°C),aerosol sample conditioner tube jacket temperature (°C),OPC LED temperature (°C),internal box temperature (°C),relative humidity of the measurement (%),span deviation,mass concentration of particles derived from Lorenz-Mie calculation of OPC scattering (μg/m³),mass concentration of particles derived from Lorenz-Mie calculation of OPC scattering (μg/m³),mass concentration of particles derived from Lorenz-Mie calculation of OPC scattering (μg/m³)
DateTimeUTC,F1_M11,P_M11,Q1_M11,Q2_M11,T1_M11,T2_M11,T3_M11,T4_M11,T5_M11,U1_M11,ZSPAN_M11,X2_M11,X0_M11,X1_M11
2024-02-04 03:00:00,SystemResetWarning,0818.5,5.00,000.00,019.1,018.3,000.0,027.5,020.7,26.5,0000.0,0001.82,0002.31,0001.67
2024-02-04 03:01:00,SystemResetWarning,0818.5,5.00,000.00,019.0,018.3,000.0,027.5,020.7,26.6,0000.0,0001.83,0002.27,0001.69
2024-02-04 03:02:00,SystemResetWarning,0818.6,5.00,000.00,019.0,018.3,000.0,027.5,020.6,26.5,0000.0,0001.83,0002.35,0001.72
2024-02-04 03:03:00,SystemResetWarning,0818.6,5.00,000.00,019.0,018.3,000.0,027.5,020.6,26.5,0000.0,0001.86,0002.58,0001.75
2024-02-04 03:04:00,SystemResetWarning,0818.6,5.00,000.00,019.0,018.3,000.0,027.5,020.6,26.6,0000.0,0001.89,0002.61,0001.78
2024-02-04 03:05:00,SystemResetWarning,0818.6,5.00,000.00,019.0,018.3,000.0,027.5,020.6,26.8,0000.0,0001.92,0002.67,0001.79
2024-02-04 03:06:00,SystemResetWarning,0818.7,5.00,000.00,019.0,018.2,000.0,027.4,020.6,27.7,0000.0,0001.90,0002.65,0001.79
2024-02-04 03:07:00,SystemResetWarning,0818.6,5.00,000.00,019.0,018.2,000.0,027.4,020.6,27.1,0000.0,0001.89,0002.64,0001.78
2024-02-04 03:08:00,SystemResetWarning,0818.7,5.00,000.00,018.9,018.2,000.0,027.4,020.6,26.8,0000.0,0001.88,0002.62,0001.78
2024-02-04 03:09:00,SystemResetWarning,0818.7,5.00,000.00,018.9,018.2,000.0,027.4,020.6,26.8,0000.0,0001.88,0002.63,0001.77
2024-02-04 03:10:00,SystemResetWarning,0818.7,5.00,000.00,018.9,018.2,000.0,027.4,020.6,26.8,0000.0,0001.87,0002.67,0001.75
2024-02-04 03:11:00,SystemResetWarning,0818.7,5.00,000.00,018.9,018.2,000.0,027.4,020.6,26.7,0000.0,0001.85,0002.70,0001.73
2024-02-04 03:12:00,SystemResetWarning,0818.7,5.00,000.00,018.9,018.2,000.0,027.4,020.6,26.7,0000.0,0001.85,0002.69,0001.73
2024-02-04 03:13:00,SystemResetWarning,0818.7,5.00,000.00,018.9,018.2,000.0,027.4,020.6,26.7,0000.0,0001.85,0002.63,0001.73
2024-02-04 03:14:00,SystemResetWarning,0818.7,5.00,000.00,018.9,018.2,000.0,027.4,020.6,26.8,0000.0,0001.85,0002.39,0001.73
2024-02-04 03:15:00,SystemResetWarning,0818.7,4.99,000.00,018.9,018.2,000.0,027.4,020.5,26.8,0000.0,0001.85,0002.37,0001.72
2024-02-04 03:16:00,SystemResetWarning,0818.7,4.99,000.00,018.9,018.2,000.0,027.3,020.5,26.8,0000.0,0001.84,0002.34,0001.73
2024-02-04 03:17:00,SystemResetWarning,0818.8,5.00,000.00,018.9,018.2,000.0,027.3,020.5,26.8,0000.0,0001.88,0002.39,0001.76
2024-02-04 03:18:00,SystemResetWarning,0818.8,5.01,000.00,018.9,018.1,000.0,027.3,020.5,26.7,0000.0,0001.92,0002.45,0001.80
2024-02-04 03:19:00,SystemResetWarning,0818.8,5.01,000.00,018.9,018.1,000.0,027.3,020.5,26.7,0000.0,0001.93,0002.46,0001.81
2024-02-04 03:20:00,SystemResetWarning,0818.8,5.00,000.00,018.9,018.1,000.0,027.3,020.5,26.7,0000.0,0001.94,0002.48,0001.81
2024-02-04 03:21:00,SystemResetWarning,0818.8,4.99,000.00,018.8,018.1,000.0,027.3,020.5,26.6,0000.0,0001.93,0002.43,0001.81
2024-02-04 03:22:00,SystemResetWarning,0818.9,4.99,000.00,018.8,018.1,000.0,027.3,020.5,26.6,0000.0,0001.90,0003.20,0001.80
2024-02-04 03:23:00,SystemResetWarning,0818.8,5.00,000.00,018.8,018.1,000.0,027.3,020.5,26.6,0000.0,0001.87,0003.17,0001.76
2024-02-04 03:24:00,SystemResetWarning,0819.0,4.99,000.00,018.8,018.1,000.0,027.3,020.5,26.6,0000.0,0001.82,0003.08,0001.73
2024-02-04 03:25:00,SystemResetWarning,0819.3,5.01,000.00,018.8,018.1,000.0,027.3,020.5,26.6,0000.0,0001.78,0003.01,0001.70
2024-02-04 03:26:00,SystemResetWarning,0819.4,5.01,000.00,018.8,018.1,000.0,027.3,020.5,26.5,0000.0,0001.77,0003.07,0001.67
2024-02-04 03:27:00,SystemResetWarning,0819.3,4.99,000.00,018.8,018.1,000.0,027.3,020.5,26.5,0000.0,0001.77,0003.15,0001.66
2024-02-04 03:28:00,SystemResetWarning,0819.1,4.98,000.00,018.8,018.1,000.0,027.3,020.6,26.5,0000.0,0001.74,0003.11,0001.64
2024-02-04 03:29:00,SystemResetWarning,0819.0,4.99,000.00,018.8,018.2,000.0,027.3,020.6,26.5,0000.0,0001.69,0003.06,0001.59
2024-02-04 03:30:00,SystemResetWarning,0819.0,5.00,000.00,018.8,018.2,000.0,027.3,020.6,26.5,0000.0,0001.70,0003.08,0001.57
2024-02-04 03:31:00,SystemResetWarning,0819.0,5.00,000.00,018.8,018.2,000.0,027.3,020.6,26.5,0000.0,0001.68,0003.04,0001.56
2024-02-04 03:32:00,SystemResetWarning,0819.0,5.00,000.00,018.9,018.3,000.0,027.3,020.6,26.5,0000.0,0001.70,0003.08,0001.57
2024-02-04 03:33:00,SystemResetWarning,0819.0,5.00,000.00,018.9,018.3,000.0,027.3,020.6,26.5,0000.0,0001.71,0002.21,0001.59
2024-02-04 03:34:00,SystemResetWarning,0819.0,5.00,000.00,018.9,018.3,000.0,027.3,020.6,26.5,0000.0,0001.76,0002.29,0001.63
2024-02-04 03:35:00,SystemResetWarning,0819.0,5.00,000.00,018.9,018.3,000.0,027.3,020.6,26.4,0000.0,0001.79,0002.38,0001.65
2024-02-04 03:36:00,SystemResetWarning,0819.0,4.99,000.00,018.9,018.3,000.0,027.3,020.6,26.4,0000.0,0001.84,0002.48,0001.68
2024-02-04 03:37:00,SystemResetWarning,0819.1,5.00,000.00,018.9,018.3,000.0,027.3,020.6,26.4,0000.0,0001.85,0002.42,0001.69
2024-02-04 03:38:00,SystemResetWarning,0819.0,4.99,000.00,018.9,018.2,000.0,027.3,020.6,26.3,0000.0,0001.84,0002.33,0001.69
2024-02-04 03:39:00,SystemResetWarning,0819.1,5.00,000.00,018.9,018.2,000.0,027.3,020.6,26.4,0000.0,0001.84,0002.33,0001.69
2024-02-04 03:40:00,SystemResetWarning,0819.1,5.00,000.00,018.9,018.2,000.0,027.3,020.6,26.5,0000.0,0001.83,0002.36,0001.68
2024-02-04 03:41:00,SystemResetWarning,0819.1,5.01,000.00,018.9,018.2,000.0,027.3,020.5,26.6,0000.0,0001.83,0003.32,0001.67
2024-02-04 03:42:00,SystemResetWarning,0819.1,5.01,000.00,018.8,018.2,000.0,027.3,020.5,26.7,0000.0,0001.86,0003.39,0001.68
2024-02-04 03:43:00,SystemResetWarning,0819.2,5.00,000.00,018.8,018.2,000.0,027.3,020.5,26.7,0000.0,0001.94,0003.54,0001.73
2024-02-04 03:44:00,SystemResetWarning,0819.3,4.99,000.00,018.8,018.2,000.0,027.2,020.5,26.7,0000.0,0002.01,0003.65,0001.78
2024-02-04 03:45:00,SystemResetWarning,0819.3,5.00,000.00,018.8,018.2,000.0,027.2,020.5,26.6,0000.0,0002.06,0003.71,0001.82
2024-02-04 03:46:00,SystemResetWarning,0819.1,4.99,000.00,018.8,018.2,000.0,027.3,020.6,26.6,0000.0,0002.11,0003.74,0001.88
2024-02-04 03:47:00,SystemResetWarning,0819.1,5.00,000.00,018.8,018.2,000.0,027.3,020.6,26.6,0000.0,0002.28,0004.02,0002.06
2024-02-04 03:48:00,SystemResetWarning,0819.1,5.01,000.00,018.8,018.2,000.0,027.3,020.6,26.6,0000.0,0002.55,0004.32,0002.32
2024-02-04 03:49:00,SystemResetWarning,0819.2,5.00,000.00,018.8,018.2,000.0,027.3,020.6,26.6,0000.0,0002.86,0004.69,0002.59
2024-02-04 03:50:00,SystemResetWarning,0819.2,4.99,000.00,018.8,018.2,000.0,027.3,020.6,26.6,0000.0,0003.19,0005.17,0002.98
2024-02-04 03:51:00,SystemResetWarning,0819.1,5.00,000.00,018.8,018.2,000.0,027.3,020.6,26.6,0000.0,0003.47,0005.76,0003.30
2024-02-04 03:52:00,SystemResetWarning,0819.1,5.01,000.00,018.8,018.2,000.0,027.3,020.6,26.5,0000.0,0003.74,0005.53,0003.57
2024-02-04 03:53:00,SystemResetWarning,0819.1,5.01,000.00,018.8,018.2,000.0,027.3,020.6,26.5,0000.0,0003.97,0005.69,0003.81
2024-02-04 03:54:00,SystemResetWarning,0819.2,5.01,000.00,018.8,018.2,000.0,027.3,020.6,26.4,0000.0,0004.10,0005.93,0003.93
2024-02-04 03:55:00,SystemResetWarning,0819.2,5.00,000.00,018.8,018.2,000.0,027.3,020.6,26.4,0000.0,0004.14,0005.99,0003.99
2024-02-04 03:56:00,SystemResetWarning,0819.2,4.98,000.00,018.8,018.2,000.0,027.3,020.6,26.3,0000.0,0004.17,0006.03,0004.03
2024-02-04 03:57:00,SystemResetWarning,0819.2,5.00,000.00,018.8,018.2,000.0,027.3,020.6,26.3,0000.0,0004.18,0006.01,0004.05
2024-02-04 03:58:00,SystemResetWarning,0819.3,5.01,000.00,018.8,018.2,000.0,027.3,020.6,26.2,0000.0,0004.10,0005.72,0003.98
2024-02-04 03:59:00,SystemResetWarning,0819.2,5.01,000.00,018.8,018.2,000.0,027.3,020.6,26.2,0000.0,0003.96,0005.42,0003.84
